Regional Weather Roundup
Issued by NWS

Home | Current Version | Previous Version | Text Only | Print | Product List | Glossary On
Versions: 1 2 3 4 5 6 7 8 9 10 11 12 13 14 15 16 17 18 19 20 21 22 23 24 25 26 27 28
000
ASCA42 TJSJ 252210
RWRPR
PUERTO RICO/U.S. VIRGIN ISLANDS HOURLY WEATHER ROUNDUP
NATIONAL WEATHER SERVICE SAN JUAN PR
600 PM AST SUN FEB 25 2018

PRZ001>002-007>008-010-252300-
PUERTO RICO

CITY           SKY/WX    TMP DP  RH WIND       PRES   REMARKS
SAN JUAN LMM   MOCLDY    73  70  88 SE9       30.05R
AGUADILLA      MOCLDY    77  66  69 E14       30.06S
$$

VIZ001>002-252300-
U.S. VIRGIN ISLANDS

CITY           SKY/WX    TMP DP  RH WIND       PRES   REMARKS
CHARLOTTE AMA  MOCLDY    75  72  88 E9        30.04R
CHRISTIANSTED  PTCLDY    77  70  78 NE12      30.04R
$$

HOURLY WEATHER ROUNDUP FOR THE NEWS MEDIA

CITY           SKY/WX    TMP DP  RH WIND       PRES   REMARKS
ORLANDO        FAIR      86  56  35 S5        30.10F
NEW YORK       CLOUDY    42  41  96 N9        29.99S
NEWARK         DRIZZLE   43  41  93 NE6       29.98F
CHICAGO        FAIR      44  24  45 W25G39    29.96R
HARTFORD       LGT RAIN  43  32  65 N5        29.96R
BOSTON         LGT RAIN  40  39  97 NE13      30.02R VSB 3/4 WCI  32
DALLAS         MOSUNNY   66  46  48 VRB6      29.96F
PHILADELPHIA   CLOUDY    47  45  93 NE8       29.98R
LOS ANGELES    SUNNY     68  31  25 W10       30.15F
WASHINGTON DC  CLOUDY    52  52 100 S3        29.95F



USA.gov is the U.S. government's official web portal to all federal, state and local government web resources and services.